Location: Fenn
(52.1430°N, 112.7440°W)
Time: 09:36:22
(UTC+00:00)

Tiangong - Visible Passes

Search period start: 08 June 2023 00:00
Search period end: 18 June 2023 00:00
Orbit: 386 x 390 km, 41.5° (Epoch: 07 June)

Date Brightness Start Highest point End Pass type
(mag) Time Alt. Az. Time Alt. Az. Time Alt. Az.
08 Jun 0.0 09:48:52 12° S 09:49:35 12° S 09:50:59 10° SSE visible
10 Jun 0.0 09:29:16 13° S 09:29:16 13° S 09:30:25 10° SSE visible
11 Jun 0.1 10:05:51 10° SSW 10:06:32 11° SSW 10:07:15 10° S visible
